owner,sensor,date,latitude,longitude,vertical_datum,sea_water_practical_salinity,qcFlag 
SCCF RECON,ioos:station:SCCF:56:1,2019-02-01T05:00:00Z,26.4645,-82.1044,1.67,27.97,1111122 
SCCF RECON,ioos:station:SCCF:56:1,2019-02-01T06:00:00Z,26.4645,-82.1044,1.57,27.81,1111122 
SCCF RECON,ioos:station:SCCF:56:1,2019-02-01T07:00:00Z,26.4645,-82.1044,1.44,28.37,1111122 
SCCF RECON,ioos:station:SCCF:56:1,2019-02-01T08:00:00Z,26.4645,-82.1044,1.32,28.63,1111122 
SCCF RECON,ioos:station:SCCF:56:1,2019-02-01T09:00:00Z,26.4645,-82.1044,1.22,28.86,1111122 
SCCF RECON,ioos:station:SCCF:56:1,2019-02-01T10:00:00Z,26.4645,-82.1044,1.14,28.85,1111122 
SCCF RECON,ioos:station:SCCF:56:1,2019-02-01T11:00:00Z,26.4645,-82.1044,1.1,28.77,1111122 
SCCF RECON,ioos:station:SCCF:56:1,2019-02-01T12:00:00Z,26.4645,-82.1044,1.17,28.76,1111122 
SCCF RECON,ioos:station:SCCF:56:1,2019-02-01T13:00:00Z,26.4645,-82.1044,1.31,27.66,1111122 
SCCF RECON,ioos:station:SCCF:56:1,2019-02-01T14:00:00Z,26.4645,-82.1044,1.432,27.55,1111122 
SCCF RECON,ioos:station:SCCF:56:1,2019-02-01T15:00:00Z,26.4645,-82.1044,1.549,27.9,1111122 
SCCF RECON,ioos:station:SCCF:56:1,2019-02-01T16:00:00Z,26.4645,-82.1044,1.64,28.08,1111122 
SCCF RECON,ioos:station:SCCF:56:1,2019-02-01T17:00:00Z,26.4645,-82.1044,1.69,27.94,1111122 
SCCF RECON,ioos:station:SCCF:56:1,2019-02-01T18:00:00Z,26.4645,-82.1044,1.71,27.87,1111122 
SCCF RECON,ioos:station:SCCF:56:1,2019-02-01T19:00:00Z,26.4645,-82.1044,1.7,27.91,1111122 
SCCF RECON,ioos:station:SCCF:56:1,2019-02-01T20:00:00Z,26.4645,-82.1044,1.611,27.89,1111122 
SCCF RECON,ioos:station:SCCF:56:1,2019-02-01T21:00:00Z,26.4645,-82.1044,1.577,27.87,1111122 
SCCF RECON,ioos:station:SCCF:56:1,2019-02-01T22:00:00Z,26.4645,-82.1044,1.58,27.88,1111122 
SCCF RECON,ioos:station:SCCF:56:1,2019-02-01T23:00:00Z,26.4645,-82.1044,1.64,27.85,1111122 
SCCF RECON,ioos:station:SCCF:56:1,2019-02-02T05:00:00Z,26.4645,-82.1044,1.79,27.29,1111122 
SCCF RECON,ioos:station:SCCF:56:1,2019-02-02T06:00:00Z,26.4645,-82.1044,1.72,27.48,1111122 
SCCF RECON,ioos:station:SCCF:56:1,2019-02-02T07:00:00Z,26.4645,-82.1044,1.6,27.59,1111122 
SCCF RECON,ioos:station:SCCF:56:1,2019-02-02T08:00:00Z,26.4645,-82.1044,1.452,27.84,1111122 
SCCF RECON,ioos:station:SCCF:56:1,2019-02-02T09:00:00Z,26.4645,-82.1044,1.334,27.96,1111122 
SCCF RECON,ioos:station:SCCF:56:1,2019-02-02T10:00:00Z,26.4645,-82.1044,1.21,28.03,1111122 
SCCF RECON,ioos:station:SCCF:56:1,2019-02-02T11:00:00Z,26.4645,-82.1044,1.13,28.09,1111122 
SCCF RECON,ioos:station:SCCF:56:1,2019-02-02T12:00:00Z,26.4645,-82.1044,1.1,28.14,1111122 
SCCF RECON,ioos:station:SCCF:56:1,2019-02-02T13:00:00Z,26.4645,-82.1044,1.2,28.1,1111122 
SCCF RECON,ioos:station:SCCF:56:1,2019-02-02T14:00:00Z,26.4645,-82.1044,1.37,27.92,1111122 
SCCF RECON,ioos:station:SCCF:56:1,2019-02-02T15:00:00Z,26.4645,-82.1044,1.498,27.51,1111122 
SCCF RECON,ioos:station:SCCF:56:1,2019-02-02T16:00:00Z,26.4645,-82.1044,1.59,27.52,1111122 
SCCF RECON,ioos:station:SCCF:56:1,2019-02-02T17:00:00Z,26.4645,-82.1044,1.69,27.83,1111122 
SCCF RECON,ioos:station:SCCF:56:1,2019-02-02T18:00:00Z,26.4645,-82.1044,1.73,28.01,1111122 
SCCF RECON,ioos:station:SCCF:56:1,2019-02-02T19:00:00Z,26.4645,-82.1044,1.7,28.0,1111122 
SCCF RECON,ioos:station:SCCF:56:1,2019-02-02T20:00:00Z,26.4645,-82.1044,1.619,27.81,1111122 
SCCF RECON,ioos:station:SCCF:56:1,2019-02-02T21:00:00Z,26.4645,-82.1044,1.56,27.74,1111122 
SCCF RECON,ioos:station:SCCF:56:1,2019-02-02T22:00:00Z,26.4645,-82.1044,1.54,27.7,1111122 
SCCF RECON,ioos:station:SCCF:56:1,2019-02-02T23:00:00Z,26.4645,-82.1044,1.55,27.69,1111122 
SCCF RECON,ioos:station:SCCF:56:1,2019-02-03T05:00:00Z,26.4645,-82.1044,1.88,28.12,1111122 
SCCF RECON,ioos:station:SCCF:56:1,2019-02-03T06:00:00Z,26.4645,-82.1044,1.81,28.08,1111122 
SCCF RECON,ioos:station:SCCF:56:1,2019-02-03T07:00:00Z,26.4645,-82.1044,1.69,28.06,1111122 
SCCF RECON,ioos:station:SCCF:56:1,2019-02-03T08:00:00Z,26.4645,-82.1044,1.54,28.09,1111122 
SCCF RECON,ioos:station:SCCF:56:1,2019-02-03T09:00:00Z,26.4645,-82.1044,1.4,27.99,1111122 
SCCF RECON,ioos:station:SCCF:56:1,2019-02-03T10:00:00Z,26.4645,-82.1044,1.28,27.98,1111122 
SCCF RECON,ioos:station:SCCF:56:1,2019-02-03T11:00:00Z,26.4645,-82.1044,1.17,27.94,1111122 
SCCF RECON,ioos:station:SCCF:56:1,2019-02-03T12:00:00Z,26.4645,-82.1044,1.1,27.96,1111122 
SCCF RECON,ioos:station:SCCF:56:1,2019-02-03T13:00:00Z,26.4645,-82.1044,1.11,27.97,1111122 
SCCF RECON,ioos:station:SCCF:56:1,2019-02-03T14:00:00Z,26.4645,-82.1044,1.26,27.97,1111122 
SCCF RECON,ioos:station:SCCF:56:1,2019-02-03T15:00:00Z,26.4645,-82.1044,1.427,28.04,1111122 
SCCF RECON,ioos:station:SCCF:56:1,2019-02-03T16:00:00Z,26.4645,-82.1044,1.55,28.17,1111122 
SCCF RECON,ioos:station:SCCF:56:1,2019-02-03T17:00:00Z,26.4645,-82.1044,1.64,28.23,1111122 
SCCF RECON,ioos:station:SCCF:56:1,2019-02-03T18:00:00Z,26.4645,-82.1044,1.7,28.31,1111122 
SCCF RECON,ioos:station:SCCF:56:1,2019-02-03T19:00:00Z,26.4645,-82.1044,1.682,28.32,1111122 
SCCF RECON,ioos:station:SCCF:56:1,2019-02-03T20:00:00Z,26.4645,-82.1044,1.61,28.26,1111122 
SCCF RECON,ioos:station:SCCF:56:1,2019-02-03T21:00:00Z,26.4645,-82.1044,1.526,28.22,1111122 
SCCF RECON,ioos:station:SCCF:56:1,2019-02-03T22:00:00Z,26.4645,-82.1044,1.471,28.19,1111122 
SCCF RECON,ioos:station:SCCF:56:1,2019-02-03T23:00:00Z,26.4645,-82.1044,1.46,28.17,1111122 
SCCF RECON,ioos:station:SCCF:56:1,2019-02-04T05:00:00Z,26.4645,-82.1044,1.91,28.24,1111122 
SCCF RECON,ioos:station:SCCF:56:1,2019-02-04T06:00:00Z,26.4645,-82.1044,1.86,28.25,1111122 
SCCF RECON,ioos:station:SCCF:56:1,2019-02-04T07:00:00Z,26.4645,-82.1044,1.75,28.27,1111122 
SCCF RECON,ioos:station:SCCF:56:1,2019-02-04T08:00:00Z,26.4645,-82.1044,1.6,28.26,1111122 
SCCF RECON,ioos:station:SCCF:56:1,2019-02-04T09:00:00Z,26.4645,-82.1044,1.47,28.24,1111122 
SCCF RECON,ioos:station:SCCF:56:1,2019-02-04T10:00:00Z,26.4645,-82.1044,1.344,28.23,1111122 
SCCF RECON,ioos:station:SCCF:56:1,2019-02-04T11:00:00Z,26.4645,-82.1044,1.23,28.23,1111122 
SCCF RECON,ioos:station:SCCF:56:1,2019-02-04T12:00:00Z,26.4645,-82.1044,1.14,28.22,1111122 
SCCF RECON,ioos:station:SCCF:56:1,2019-02-04T13:00:00Z,26.4645,-82.1044,1.09,28.21,1111122 
SCCF RECON,ioos:station:SCCF:56:1,2019-02-04T14:00:00Z,26.4645,-82.1044,1.17,28.2,1111122 
SCCF RECON,ioos:station:SCCF:56:1,2019-02-04T15:00:00Z,26.4645,-82.1044,1.33,28.25,1111122 
SCCF RECON,ioos:station:SCCF:56:1,2019-02-04T16:00:00Z,26.4645,-82.1044,1.48,28.3,1111122 
SCCF RECON,ioos:station:SCCF:56:1,2019-02-04T17:00:00Z,26.4645,-82.1044,1.6,28.32,1111122 
SCCF RECON,ioos:station:SCCF:56:1,2019-02-04T18:00:00Z,26.4645,-82.1044,1.673,28.28,1111122 
SCCF RECON,ioos:station:SCCF:56:1,2019-02-04T19:00:00Z,26.4645,-82.1044,1.69,28.32,1111122 
SCCF RECON,ioos:station:SCCF:56:1,2019-02-04T20:00:00Z,26.4645,-82.1044,1.64,28.28,1111122 
SCCF RECON,ioos:station:SCCF:56:1,2019-02-04T21:00:00Z,26.4645,-82.1044,1.56,28.28,1111122 
SCCF RECON,ioos:station:SCCF:56:1,2019-02-04T22:00:00Z,26.4645,-82.1044,1.51,28.28,1111122 
SCCF RECON,ioos:station:SCCF:56:1,2019-02-04T23:00:00Z,26.4645,-82.1044,1.48,28.28,1111122 
SCCF RECON,ioos:station:SCCF:56:1,2019-02-05T05:00:00Z,26.4645,-82.1044,1.89,28.35,1111122 
SCCF RECON,ioos:station:SCCF:56:1,2019-02-05T06:00:00Z,26.4645,-82.1044,1.9,28.37,1111122 
SCCF RECON,ioos:station:SCCF:56:1,2019-02-05T07:00:00Z,26.4645,-82.1044,1.82,28.3,1111122 
SCCF RECON,ioos:station:SCCF:56:1,2019-02-05T08:00:00Z,26.4645,-82.1044,1.66,28.33,1111122 
SCCF RECON,ioos:station:SCCF:56:1,2019-02-05T09:00:00Z,26.4645,-82.1044,1.513,28.36,1111122 
SCCF RECON,ioos:station:SCCF:56:1,2019-02-05T10:00:00Z,26.4645,-82.1044,1.39,28.37,1111122 
SCCF RECON,ioos:station:SCCF:56:1,2019-02-05T11:00:00Z,26.4645,-82.1044,1.279,28.37,1111122 
SCCF RECON,ioos:station:SCCF:56:1,2019-02-05T12:00:00Z,26.4645,-82.1044,1.18,28.39,1111122 
SCCF RECON,ioos:station:SCCF:56:1,2019-02-05T13:00:00Z,26.4645,-82.1044,1.1,28.4,1111122 
SCCF RECON,ioos:station:SCCF:56:1,2019-02-05T14:00:00Z,26.4645,-82.1044,1.112,28.41,1111122 
SCCF RECON,ioos:station:SCCF:56:1,2019-02-05T15:00:00Z,26.4645,-82.1044,1.27,28.41,1111122 
SCCF RECON,ioos:station:SCCF:56:1,2019-02-05T16:00:00Z,26.4645,-82.1044,1.44,28.41,1111122 
SCCF RECON,ioos:station:SCCF:56:1,2019-02-05T17:00:00Z,26.4645,-82.1044,1.57,28.4,1111122 
SCCF RECON,ioos:station:SCCF:56:1,2019-02-05T18:00:00Z,26.4645,-82.1044,1.669,28.38,1111122 
SCCF RECON,ioos:station:SCCF:56:1,2019-02-05T19:00:00Z,26.4645,-82.1044,1.72,28.39,1111122 
SCCF RECON,ioos:station:SCCF:56:1,2019-02-05T20:00:00Z,26.4645,-82.1044,1.704,28.39,1111122 
SCCF RECON,ioos:station:SCCF:56:1,2019-02-05T21:00:00Z,26.4645,-82.1044,1.61,28.36,1111122 
SCCF RECON,ioos:station:SCCF:56:1,2019-02-05T22:00:00Z,26.4645,-82.1044,1.51,28.35,1111122 
SCCF RECON,ioos:station:SCCF:56:1,2019-02-05T23:00:00Z,26.4645,-82.1044,1.47,28.34,1111122 
SCCF RECON,ioos:station:SCCF:56:1,2019-02-06T05:00:00Z,26.4645,-82.1044,1.87,28.38,1111122 
SCCF RECON,ioos:station:SCCF:56:1,2019-02-06T06:00:00Z,26.4645,-82.1044,1.91,28.33,1111122 
SCCF RECON,ioos:station:SCCF:56:1,2019-02-06T07:00:00Z,26.4645,-82.1044,1.888,28.22,1111122 
SCCF RECON,ioos:station:SCCF:56:1,2019-02-06T08:00:00Z,26.4645,-82.1044,1.776,28.28,1111122 
SCCF RECON,ioos:station:SCCF:56:1,2019-02-06T09:00:00Z,26.4645,-82.1044,1.62,28.34,1111122 
SCCF RECON,ioos:station:SCCF:56:1,2019-02-06T10:00:00Z,26.4645,-82.1044,1.48,28.4,1111122 
SCCF RECON,ioos:station:SCCF:56:1,2019-02-06T11:00:00Z,26.4645,-82.1044,1.36,28.43,1111122 
SCCF RECON,ioos:station:SCCF:56:1,2019-02-06T12:00:00Z,26.4645,-82.1044,1.25,28.46,1111122 
SCCF RECON,ioos:station:SCCF:56:1,2019-02-06T13:00:00Z,26.4645,-82.1044,1.16,28.49,1111122 
SCCF RECON,ioos:station:SCCF:56:1,2019-02-06T14:00:00Z,26.4645,-82.1044,1.116,28.51,1111122 
SCCF RECON,ioos:station:SCCF:56:1,2019-02-06T15:00:00Z,26.4645,-82.1044,1.21,28.51,1111122 
SCCF RECON,ioos:station:SCCF:56:1,2019-02-06T16:00:00Z,26.4645,-82.1044,1.374,28.44,1111122 
SCCF RECON,ioos:station:SCCF:56:1,2019-02-06T17:00:00Z,26.4645,-82.1044,1.52,28.37,1111122 
SCCF RECON,ioos:station:SCCF:56:1,2019-02-06T18:00:00Z,26.4645,-82.1044,1.61,28.3,1111122 
SCCF RECON,ioos:station:SCCF:56:1,2019-02-06T19:00:00Z,26.4645,-82.1044,1.7,28.34,1111122 
SCCF RECON,ioos:station:SCCF:56:1,2019-02-06T20:00:00Z,26.4645,-82.1044,1.73,28.31,1111122 
SCCF RECON,ioos:station:SCCF:56:1,2019-02-06T21:00:00Z,26.4645,-82.1044,1.683,28.28,1111122 
SCCF RECON,ioos:station:SCCF:56:1,2019-02-06T23:00:00Z,26.4645,-82.1044,1.51,28.31,1111122 
SCCF RECON,ioos:station:SCCF:56:1,2019-02-07T05:00:00Z,26.4645,-82.1044,1.82,28.28,1111122 
SCCF RECON,ioos:station:SCCF:56:1,2019-02-07T06:00:00Z,26.4645,-82.1044,1.872,28.21,1111122 
SCCF RECON,ioos:station:SCCF:56:1,2019-02-07T07:00:00Z,26.4645,-82.1044,1.89,28.1,1111122 
SCCF RECON,ioos:station:SCCF:56:1,2019-02-07T08:00:00Z,26.4645,-82.1044,1.81,28.15,1111122 
SCCF RECON,ioos:station:SCCF:56:1,2019-02-07T09:00:00Z,26.4645,-82.1044,1.68,28.19,1111122 
SCCF RECON,ioos:station:SCCF:56:1,2019-02-07T10:00:00Z,26.4645,-82.1044,1.54,28.3,1111122 
SCCF RECON,ioos:station:SCCF:56:1,2019-02-07T11:00:00Z,26.4645,-82.1044,1.42,28.36,1111122 
SCCF RECON,ioos:station:SCCF:56:1,2019-02-07T12:00:00Z,26.4645,-82.1044,1.32,28.42,1111122 
SCCF RECON,ioos:station:SCCF:56:1,2019-02-07T13:00:00Z,26.4645,-82.1044,1.22,28.47,1111122 
SCCF RECON,ioos:station:SCCF:56:1,2019-02-07T14:00:00Z,26.4645,-82.1044,1.15,28.51,1111122 
SCCF RECON,ioos:station:SCCF:56:1,2019-02-07T15:00:00Z,26.4645,-82.1044,1.15,28.55,1111122 
SCCF RECON,ioos:station:SCCF:56:1,2019-02-07T16:00:00Z,26.4645,-82.1044,1.3,28.46,1111122 
SCCF RECON,ioos:station:SCCF:56:1,2019-02-07T17:00:00Z,26.4645,-82.1044,1.47,28.39,1111122 
SCCF RECON,ioos:station:SCCF:56:1,2019-02-07T18:00:00Z,26.4645,-82.1044,1.588,28.23,1111122 
SCCF RECON,ioos:station:SCCF:56:1,2019-02-07T19:00:00Z,26.4645,-82.1044,1.67,28.26,1111122 
SCCF RECON,ioos:station:SCCF:56:1,2019-02-07T20:00:00Z,26.4645,-82.1044,1.718,28.19,1111122 
SCCF RECON,ioos:station:SCCF:56:1,2019-02-07T21:00:00Z,26.4645,-82.1044,1.69,28.12,1111122 
SCCF RECON,ioos:station:SCCF:56:1,2019-02-07T22:00:00Z,26.4645,-82.1044,1.63,28.15,1111122 
SCCF RECON,ioos:station:SCCF:56:1,2019-02-07T23:00:00Z,26.4645,-82.1044,1.54,28.2,1111122 
SCCF RECON,ioos:station:SCCF:56:1,2019-02-08T05:00:00Z,26.4645,-82.1044,1.768,28.27,1111122 
SCCF RECON,ioos:station:SCCF:56:1,2019-02-08T06:00:00Z,26.4645,-82.1044,1.86,28.15,1111122 
SCCF RECON,ioos:station:SCCF:56:1,2019-02-08T07:00:00Z,26.4645,-82.1044,1.89,28.18,1111122 
SCCF RECON,ioos:station:SCCF:56:1,2019-02-08T08:00:00Z,26.4645,-82.1044,1.861,28.18,1111122 
SCCF RECON,ioos:station:SCCF:56:1,2019-02-08T09:00:00Z,26.4645,-82.1044,1.77,28.19,1111122 
SCCF RECON,ioos:station:SCCF:56:1,2019-02-08T10:00:00Z,26.4645,-82.1044,1.64,28.24,1111122 
SCCF RECON,ioos:station:SCCF:56:1,2019-02-08T11:00:00Z,26.4645,-82.1044,1.51,28.31,1111122 
SCCF RECON,ioos:station:SCCF:56:1,2019-02-08T12:00:00Z,26.4645,-82.1044,1.41,28.37,1111122 
SCCF RECON,ioos:station:SCCF:56:1,2019-02-08T13:00:00Z,26.4645,-82.1044,1.314,28.4,1111122 
SCCF RECON,ioos:station:SCCF:56:1,2019-02-08T14:00:00Z,26.4645,-82.1044,1.241,28.45,1111122 
SCCF RECON,ioos:station:SCCF:56:1,2019-02-08T15:00:00Z,26.4645,-82.1044,1.21,28.49,1111122 
SCCF RECON,ioos:station:SCCF:56:1,2019-02-08T16:00:00Z,26.4645,-82.1044,1.28,28.5,1111122 
SCCF RECON,ioos:station:SCCF:56:1,2019-02-08T17:00:00Z,26.4645,-82.1044,1.435,28.32,1111122 
SCCF RECON,ioos:station:SCCF:56:1,2019-02-08T18:00:00Z,26.4645,-82.1044,1.58,28.24,1111122 
SCCF RECON,ioos:station:SCCF:56:1,2019-02-08T19:00:00Z,26.4645,-82.1044,1.67,28.2,1111122 
SCCF RECON,ioos:station:SCCF:56:1,2019-02-08T20:00:00Z,26.4645,-82.1044,1.71,28.19,1111122 
SCCF RECON,ioos:station:SCCF:56:1,2019-02-08T21:00:00Z,26.4645,-82.1044,1.69,28.19,1111122 
SCCF RECON,ioos:station:SCCF:56:1,2019-02-08T22:00:00Z,26.4645,-82.1044,1.61,28.23,1111122 
SCCF RECON,ioos:station:SCCF:56:1,2019-02-08T23:00:00Z,26.4645,-82.1044,1.52,28.25,1111122 
SCCF RECON,ioos:station:SCCF:56:1,2019-02-09T05:00:00Z,26.4645,-82.1044,1.53,28.31,1111122 
SCCF RECON,ioos:station:SCCF:56:1,2019-02-09T06:00:00Z,26.4645,-82.1044,1.64,28.32,1111122 
SCCF RECON,ioos:station:SCCF:56:1,2019-02-09T07:00:00Z,26.4645,-82.1044,1.71,28.33,1111122 
SCCF RECON,ioos:station:SCCF:56:1,2019-02-09T08:00:00Z,26.4645,-82.1044,1.73,28.32,1111122 
SCCF RECON,ioos:station:SCCF:56:1,2019-02-09T09:00:00Z,26.4645,-82.1044,1.7,28.3,1111122 
SCCF RECON,ioos:station:SCCF:56:1,2019-02-09T10:00:00Z,26.4645,-82.1044,1.61,28.32,1111122 
SCCF RECON,ioos:station:SCCF:56:1,2019-02-09T11:00:00Z,26.4645,-82.1044,1.5,28.36,1111122 
SCCF RECON,ioos:station:SCCF:56:1,2019-02-09T12:00:00Z,26.4645,-82.1044,1.41,28.45,1111122 
SCCF RECON,ioos:station:SCCF:56:1,2019-02-09T13:00:00Z,26.4645,-82.1044,1.336,28.5,1111122 
SCCF RECON,ioos:station:SCCF:56:1,2019-02-09T14:00:00Z,26.4645,-82.1044,1.254,28.56,1111122 
SCCF RECON,ioos:station:SCCF:56:1,2019-02-09T15:00:00Z,26.4645,-82.1044,1.2,28.62,1111122 
SCCF RECON,ioos:station:SCCF:56:1,2019-02-09T16:00:00Z,26.4645,-82.1044,1.22,28.66,1111122 
SCCF RECON,ioos:station:SCCF:56:1,2019-02-09T17:00:00Z,26.4645,-82.1044,1.327,28.5,1111122 
SCCF RECON,ioos:station:SCCF:56:1,2019-02-09T18:00:00Z,26.4645,-82.1044,1.45,28.37,1111122 
SCCF RECON,ioos:station:SCCF:56:1,2019-02-09T19:00:00Z,26.4645,-82.1044,1.57,28.34,1111122 
SCCF RECON,ioos:station:SCCF:56:1,2019-02-09T20:00:00Z,26.4645,-82.1044,1.666,28.33,1111122 
SCCF RECON,ioos:station:SCCF:56:1,2019-02-09T21:00:00Z,26.4645,-82.1044,1.706,28.35,1111122 
SCCF RECON,ioos:station:SCCF:56:1,2019-02-09T22:00:00Z,26.4645,-82.1044,1.669,28.29,1111122 
SCCF RECON,ioos:station:SCCF:56:1,2019-02-09T23:00:00Z,26.4645,-82.1044,1.601,28.32,1111122 
SCCF RECON,ioos:station:SCCF:56:1,2019-02-10T05:00:00Z,26.4645,-82.1044,1.37,28.55,1111122 
SCCF RECON,ioos:station:SCCF:56:1,2019-02-10T06:00:00Z,26.4645,-82.1044,1.48,28.44,1111122 
SCCF RECON,ioos:station:SCCF:56:1,2019-02-10T07:00:00Z,26.4645,-82.1044,1.59,28.48,1111122 
SCCF RECON,ioos:station:SCCF:56:1,2019-02-10T08:00:00Z,26.4645,-82.1044,1.65,28.48,1111122 
SCCF RECON,ioos:station:SCCF:56:1,2019-02-10T09:00:00Z,26.4645,-82.1044,1.7,28.44,1111122 
SCCF RECON,ioos:station:SCCF:56:1,2019-02-10T10:00:00Z,26.4645,-82.1044,1.65,28.4,1111122 
SCCF RECON,ioos:station:SCCF:56:1,2019-02-10T11:00:00Z,26.4645,-82.1044,1.561,28.39,1111122 
SCCF RECON,ioos:station:SCCF:56:1,2019-02-10T12:00:00Z,26.4645,-82.1044,1.48,28.44,1111122 
SCCF RECON,ioos:station:SCCF:56:1,2019-02-10T13:00:00Z,26.4645,-82.1044,1.411,28.49,1111122 
SCCF RECON,ioos:station:SCCF:56:1,2019-02-10T14:00:00Z,26.4645,-82.1044,1.34,28.58,1111122 
SCCF RECON,ioos:station:SCCF:56:1,2019-02-10T15:00:00Z,26.4645,-82.1044,1.27,28.66,1111122 
SCCF RECON,ioos:station:SCCF:56:1,2019-02-10T16:00:00Z,26.4645,-82.1044,1.249,28.7,1111122 
SCCF RECON,ioos:station:SCCF:56:1,2019-02-10T17:00:00Z,26.4645,-82.1044,1.34,28.57,1111122 
SCCF RECON,ioos:station:SCCF:56:1,2019-02-10T18:00:00Z,26.4645,-82.1044,1.485,28.55,1111122 
SCCF RECON,ioos:station:SCCF:56:1,2019-02-10T19:00:00Z,26.4645,-82.1044,1.61,28.45,1111122 
SCCF RECON,ioos:station:SCCF:56:1,2019-02-10T20:00:00Z,26.4645,-82.1044,1.704,28.39,1111122 
SCCF RECON,ioos:station:SCCF:56:1,2019-02-10T21:00:00Z,26.4645,-82.1044,1.77,28.25,1111122 
SCCF RECON,ioos:station:SCCF:56:1,2019-02-10T22:00:00Z,26.4645,-82.1044,1.81,28.14,1111122 
SCCF RECON,ioos:station:SCCF:56:1,2019-02-10T23:00:00Z,26.4645,-82.1044,1.77,28.08,1111122 
SCCF RECON,ioos:station:SCCF:56:1,2019-02-11T05:00:00Z,26.4645,-82.1044,1.41,28.57,1111122 
SCCF RECON,ioos:station:SCCF:56:1,2019-02-11T06:00:00Z,26.4645,-82.1044,1.49,28.38,1111122 
SCCF RECON,ioos:station:SCCF:56:1,2019-02-11T07:00:00Z,26.4645,-82.1044,1.59,27.83,1111122 
SCCF RECON,ioos:station:SCCF:56:1,2019-02-11T08:00:00Z,26.4645,-82.1044,1.66,27.78,1111122 
SCCF RECON,ioos:station:SCCF:56:1,2019-02-11T09:00:00Z,26.4645,-82.1044,1.72,27.68,1111122 
SCCF RECON,ioos:station:SCCF:56:1,2019-02-11T10:00:00Z,26.4645,-82.1044,1.74,27.95,1111122 
SCCF RECON,ioos:station:SCCF:56:1,2019-02-11T11:00:00Z,26.4645,-82.1044,1.711,27.94,1111122 
SCCF RECON,ioos:station:SCCF:56:1,2019-02-11T12:00:00Z,26.4645,-82.1044,1.66,27.81,1111122 
SCCF RECON,ioos:station:SCCF:56:1,2019-02-11T13:00:00Z,26.4645,-82.1044,1.583,27.92,1111122 
SCCF RECON,ioos:station:SCCF:56:1,2019-02-11T14:00:00Z,26.4645,-82.1044,1.5,28.1,1111122 
SCCF RECON,ioos:station:SCCF:56:1,2019-02-11T15:00:00Z,26.4645,-82.1044,1.44,28.27,1111122 
SCCF RECON,ioos:station:SCCF:56:1,2019-02-11T16:00:00Z,26.4645,-82.1044,1.381,28.42,1111122 
SCCF RECON,ioos:station:SCCF:56:1,2019-02-11T17:00:00Z,26.4645,-82.1044,1.419,28.4,1111122 
SCCF RECON,ioos:station:SCCF:56:1,2019-02-11T18:00:00Z,26.4645,-82.1044,1.501,28.27,1111122 
SCCF RECON,ioos:station:SCCF:56:1,2019-02-11T19:00:00Z,26.4645,-82.1044,1.6,28.25,1111122 
SCCF RECON,ioos:station:SCCF:56:1,2019-02-11T20:00:00Z,26.4645,-82.1044,1.69,28.11,1111122 
SCCF RECON,ioos:station:SCCF:56:1,2019-02-11T21:00:00Z,26.4645,-82.1044,1.76,28.12,1111122 
SCCF RECON,ioos:station:SCCF:56:1,2019-02-11T22:00:00Z,26.4645,-82.1044,1.81,28.12,1111122 
SCCF RECON,ioos:station:SCCF:56:1,2019-02-11T23:00:00Z,26.4645,-82.1044,1.8,28.17,1111122 
SCCF RECON,ioos:station:SCCF:56:1,2019-02-12T05:00:00Z,26.4645,-82.1044,1.34,28.47,1111122 
SCCF RECON,ioos:station:SCCF:56:1,2019-02-12T06:00:00Z,26.4645,-82.1044,1.39,28.47,1111122 
SCCF RECON,ioos:station:SCCF:56:1,2019-02-12T07:00:00Z,26.4645,-82.1044,1.46,28.4,1111122 
SCCF RECON,ioos:station:SCCF:56:1,2019-02-12T08:00:00Z,26.4645,-82.1044,1.54,28.39,1111122 
SCCF RECON,ioos:station:SCCF:56:1,2019-02-12T09:00:00Z,26.4645,-82.1044,1.61,28.41,1111122 
SCCF RECON,ioos:station:SCCF:56:1,2019-02-12T10:00:00Z,26.4645,-82.1044,1.66,28.42,1111122 
SCCF RECON,ioos:station:SCCF:56:1,2019-02-12T11:00:00Z,26.4645,-82.1044,1.71,28.45,1111122 
SCCF RECON,ioos:station:SCCF:56:1,2019-02-12T12:00:00Z,26.4645,-82.1044,1.719,28.4,1111122 
SCCF RECON,ioos:station:SCCF:56:1,2019-02-12T13:00:00Z,26.4645,-82.1044,1.69,28.41,1111122 
SCCF RECON,ioos:station:SCCF:56:1,2019-02-12T14:00:00Z,26.4645,-82.1044,1.639,28.41,1111122 
SCCF RECON,ioos:station:SCCF:56:1,2019-02-12T15:00:00Z,26.4645,-82.1044,1.6,28.43,1111122 
SCCF RECON,ioos:station:SCCF:56:1,2019-02-12T16:00:00Z,26.4645,-82.1044,1.569,28.43,1111122 
SCCF RECON,ioos:station:SCCF:56:1,2019-02-12T17:00:00Z,26.4645,-82.1044,1.56,28.44,1111122 
SCCF RECON,ioos:station:SCCF:56:1,2019-02-12T18:00:00Z,26.4645,-82.1044,1.59,28.67,1111122 
SCCF RECON,ioos:station:SCCF:56:1,2019-02-12T19:00:00Z,26.4645,-82.1044,1.641,29.04,1111122 
SCCF RECON,ioos:station:SCCF:56:1,2019-02-12T20:00:00Z,26.4645,-82.1044,1.71,29.31,1111122 
SCCF RECON,ioos:station:SCCF:56:1,2019-02-12T21:00:00Z,26.4645,-82.1044,1.79,29.75,1111122 
SCCF RECON,ioos:station:SCCF:56:1,2019-02-12T22:00:00Z,26.4645,-82.1044,1.83,30.0,1111122 
SCCF RECON,ioos:station:SCCF:56:1,2019-02-12T23:00:00Z,26.4645,-82.1044,1.84,30.45,1111122 
SCCF RECON,ioos:station:SCCF:56:1,2019-02-13T05:00:00Z,26.4645,-82.1044,1.37,28.94,1111122 
SCCF RECON,ioos:station:SCCF:56:1,2019-02-13T06:00:00Z,26.4645,-82.1044,1.27,28.85,1111122 
SCCF RECON,ioos:station:SCCF:56:1,2019-02-13T07:00:00Z,26.4645,-82.1044,1.309,28.88,1111122 
SCCF RECON,ioos:station:SCCF:56:1,2019-02-13T08:00:00Z,26.4645,-82.1044,1.368,28.91,1111122 
SCCF RECON,ioos:station:SCCF:56:1,2019-02-13T09:00:00Z,26.4645,-82.1044,1.36,29.2,1111122 
SCCF RECON,ioos:station:SCCF:56:1,2019-02-13T10:00:00Z,26.4645,-82.1044,1.39,29.8,1111122 
SCCF RECON,ioos:station:SCCF:56:1,2019-02-13T11:00:00Z,26.4645,-82.1044,1.42,28.9,1111122 
SCCF RECON,ioos:station:SCCF:56:1,2019-02-13T12:00:00Z,26.4645,-82.1044,1.41,28.67,1111122 
SCCF RECON,ioos:station:SCCF:56:1,2019-02-13T13:00:00Z,26.4645,-82.1044,1.343,28.42,1111122 
SCCF RECON,ioos:station:SCCF:56:1,2019-02-13T14:00:00Z,26.4645,-82.1044,1.35,28.32,1111122 
SCCF RECON,ioos:station:SCCF:56:1,2019-02-13T15:00:00Z,26.4645,-82.1044,1.339,28.21,1111122 
SCCF RECON,ioos:station:SCCF:56:1,2019-02-13T16:00:00Z,26.4645,-82.1044,1.299,28.14,1111122 
SCCF RECON,ioos:station:SCCF:56:1,2019-02-13T17:00:00Z,26.4645,-82.1044,1.278,27.94,1111122 
SCCF RECON,ioos:station:SCCF:56:1,2019-02-13T18:00:00Z,26.4645,-82.1044,1.27,27.93,1111122 
SCCF RECON,ioos:station:SCCF:56:1,2019-02-13T19:00:00Z,26.4645,-82.1044,1.32,28.28,1111122 
SCCF RECON,ioos:station:SCCF:56:1,2019-02-13T20:00:00Z,26.4645,-82.1044,1.33,28.47,1111122 
SCCF RECON,ioos:station:SCCF:56:1,2019-02-13T21:00:00Z,26.4645,-82.1044,1.38,29.0,1111122 
SCCF RECON,ioos:station:SCCF:56:1,2019-02-14T21:00:00Z,26.4645,-82.1044,1.621,29.92,1111122 
SCCF RECON,ioos:station:SCCF:56:1,2019-02-14T22:00:00Z,26.4645,-82.1044,1.694,29.88,1111122 
SCCF RECON,ioos:station:SCCF:56:1,2019-02-14T23:00:00Z,26.4645,-82.1044,1.769,29.67,1111122 
SCCF RECON,ioos:station:SCCF:56:1,2019-02-15T05:00:00Z,26.4645,-82.1044,1.501,29.71,1111122 
SCCF RECON,ioos:station:SCCF:56:1,2019-02-15T06:00:00Z,26.4645,-82.1044,1.38,29.52,1111122 
SCCF RECON,ioos:station:SCCF:56:1,2019-02-15T07:00:00Z,26.4645,-82.1044,1.26,29.34,1111122 
SCCF RECON,ioos:station:SCCF:56:1,2019-02-15T08:00:00Z,26.4645,-82.1044,1.167,29.3,1111122 
SCCF RECON,ioos:station:SCCF:56:1,2019-02-15T09:00:00Z,26.4645,-82.1044,1.09,29.23,1111122 
SCCF RECON,ioos:station:SCCF:56:1,2019-02-15T10:00:00Z,26.4645,-82.1044,1.083,29.03,1111122 
SCCF RECON,ioos:station:SCCF:56:1,2019-02-15T11:00:00Z,26.4645,-82.1044,1.19,29.12,1111122 
SCCF RECON,ioos:station:SCCF:56:1,2019-02-15T12:00:00Z,26.4645,-82.1044,1.33,29.08,1111122 
SCCF RECON,ioos:station:SCCF:56:1,2019-02-15T13:00:00Z,26.4645,-82.1044,1.45,29.1,1111122 
SCCF RECON,ioos:station:SCCF:56:1,2019-02-15T14:00:00Z,26.4645,-82.1044,1.566,29.04,1111122 
SCCF RECON,ioos:station:SCCF:56:1,2019-02-15T15:00:00Z,26.4645,-82.1044,1.63,28.97,1111122 
SCCF RECON,ioos:station:SCCF:56:1,2019-02-15T16:00:00Z,26.4645,-82.1044,1.628,29.11,1111122 